Location: Unspecified
(40.8819°N, 0.0000°E)
Time: 17:59:44
(UTC+00:00)

PCSat - Pass Details

Date: 21 April 2024
Orbit: 783 x 792 km, 67.1° (Epoch: 22 May)

Event Time Altitude Azimuth Distance (km) Brightness Sun altitude
Rises 03:12:03 0° 339° (NNW) 3,298 13.0 -20.8°
Reaches altitude 10° 03:14:52 10° 352° (N) 2,366 12.4 -20.4°
Maximum altitude 03:19:24 26° 49° (NE) 1,507 11.8 -19.7°
Drops below altitude 10° 03:23:55 10° 106° (ESE) 2,355 12.5 -19.0°
Sets 03:26:42 0° 118° (ESE) 3,280 13.1 -18.6°
